sat.trackr.live / text

‹ back to catalog

WORLDVIEW-1 (WV-1)

NORAD 32060 · 2007-041A

PAYLOAD ACTIVE UNKNOWN

§ Identity

Operator
Country
US
Launch date
2007-09-18
Launch site
AFWTR
Launch vehicle
Mass (kg)
RCS (m²)
5.48

Purposes: earth_obs

External: N2YO · Heavens-Above · Gunter

§ Orbital elements

Epoch: 2026-09-19T22:39:18.250272Z

Period
94.45 min
Inclination
97.3870°
Eccentricity
0.0001932
Mean motion
15.24652958 rev/d
Perigee alt
490.5 km
Apogee alt
493.2 km
Semi-major
6,870.0 km
B*
1.6947e-4
RAAN
21.3354°
Arg perigee
88.1596°
Mean anomaly
271.9863°
Rev number
5,731

§ Raw data

WORLDVIEW-1 (WV-1)1 32060U 07041A   26262.94396123  .00004114  00000+0  16947-3 0  99972 32060  97.3870  21.3354 0001932  88.1596 271.9863 15.24652958 57316

JSON: /api/v1/satellites/32060 · /tle

For live sub-satellite position, see the globe view (requires WebGL).

§ Visibility from observer

Set your observer location to see the next 7 days of passes ≥ 10°. The values pass through the URL so the page stays shareable.

No JS? Fill the form by hand. The geolocation button needs JavaScript.